Regional Weather Roundup
Issued by NWS Charleston, SC

Current Version | Previous Version | Graphics & Text | Print | Product List | Glossary On
Versions: 1 2 3 4 5 6 7 8 9 10 11 12 13 14 15 16 17 18 19 20 21 22 23 24 25 26 27 28 29 30 31 32 33 34 35 36 37 38 39 40 41 42 43 44 45 46 47 48 49 50
138 ASUS42 KCHS 191712 RWRCHS Regional Weather Roundup National Weather Service Charleston SC 1200 PM EST MON FEB 19 2018 NOTE: "fair" indicates few or no clouds below 12,000 feet with no significant weather and/or obstructions to visibility. Not all stations are quality controlled. Use data with caution, especially dewpoint observations. SCZ027-030-031-034>040-042>050-191800- ...Southeast South Carolina... CITY SKY/WX TMP DP RH WIND PRES REMARKS N Charleston PTSUNNY 69 61 75 CALM 30.39F Waterfront Prk NOT AVBL Mount Pleasant FAIR 70 64 83 CALM 30.40F Johns Island CLOUDY 72 64 78 CALM 30.40F Pinopolis N/A 55 54 94 N6 30.33F Moncks Corner CLOUDY 61 54 77 NW5 30.41F HAZE Summerville FAIR 68 59 73 N5 30.41F Beaufort MCAS FAIR 71 63 75 E3 30.39F Beaufort Arpt FAIR 68 63 83 NE8 30.39F Hilton Head Is MOSUNNY 70 63 78 E6 30.40F Walterboro CLOUDY 68 59 73 CALM 30.40F Allendale PTSUNNY 64 61 88 CALM 30.39F ...Southern Midlands and Pee Dee... CITY SKY/WX TMP DP RH WIND PRES REMARKS Georgetown CLOUDY 59 59 100 N3 30.42F Kingstree CLOUDY 55 52 88 CALM 30.43F Orangeburg NOT AVBL Barnwell N/A 64 61 88 CALM 30.41F Aiken CLOUDY 61 57 88 CALM 30.43F Manning CLOUDY 59 52 77 MISG 30.42F Columbia CLOUDY 63 55 75 VRB5 30.41F Sumter CLOUDY 58 51 80 E5 30.40F Florence CLOUDY 54 52 93 CALM 30.43F Myrtle Beach LGT RAIN 62 60 93 NE3 30.43F FOG N Myrtle Beach CLOUDY 63 58 83 VRB7G16 30.41F $$ GAZ063-065-086>088-099>101-113>116-118-119-134>141-150-191800- ...Southeast Georgia... CITY SKY/WX TMP DP RH WIND PRES REMARKS Savannah Arpt PTSUNNY 74 64 71 E3 30.39F Hunter AAF PTSUNNY 72 67 84 SE5 30.36F Fort Stewart FAIR 70 63 77 SE6 30.37F Statesboro FAIR 74 60 61 SW10 30.38F Sylvania PTSUNNY 71 65 82 SE5 30.39F Claxton PTSUNNY 74 65 73 SE6 30.38F ...CSRA, Central and far Southeast Georgia... CITY SKY/WX TMP DP RH WIND PRES REMARKS Thomson CLOUDY 62 58 85 SE5 30.44F Augusta-Bush CLOUDY 66 59 78 SE5 30.38F Augusta-Daniel CLOUDY 65 58 78 SE6 30.40F Swainsboro PTSUNNY 72 63 73 S6 30.39S Vidalia CLOUDY 72 63 73 SE5 30.38F Eastman FAIR 75 53 46 SE5 30.40S Hazlehurst FAIR 73 60 63 S5 30.36F Alma FAIR 75 63 66 S8 30.37F Waycross PTSUNNY 75 64 68 S6 30.37F Jesup NOT AVBL Baxley FAIR 72 64 78 S5 30.37F Brunswick FAIR 68 64 88 NE3 30.39F Saint Simons FAIR 72 64 76 NE8 30.38F $$ SCZ027-028-034-036>038-045-046-048>050-GAZ119-141-191800- ...Lake and Supplemental Coastal Observations... STATION/POSITION TIME TEMP WIND PRES WAVE SWELL AIR SEA DIR/SP/G HT/PER HT/PER/DIR (UTC) (F) (DEG/KT/KT) (MB) (FT/S) (FT/S/D) Winyah Bay 1545 58 50/ 5 1030.0 Lake Murray 1620 56 100/ 4/ 4 1029.5S ACE Basin NERRS 1545 71 130/ 1 1029.0 Fort Pulaski 1636 60 59 90/ 6/ 7 1029.6F Sapelo Island 1600 70 30/ 6 1029.0 $$ ANZ835-935-AMZ111-154-330-350-352-354-370-450-454-472-191800- ...C-MAN and Buoy Observations... STATION/POSITION TIME TEMP WIND PRES WAVE SWELL AIR SEA DIR/SP/G HT/PER HT/PER/DIR (UTC) (F) (DEG/KT/KT) (MB) (FT/S) (FT/S/D) Buoy 41004 1650 70 67 140/ 8/ 10 1029.1F 4/ 7 5/ 80/ 7 Buoy 41008 1650 59 58 20/ 6/ 8 1028.5F 3/ 7 3/ 90/ 7 Folly Beach CMAN 1700 61 30/ 5/ 6 1029.8F Capers Nearshore NOT AVBL Fripp Nearshore 1608 61 57 50/ 4/ 6 1028.6F STATION/POSITION TIME TEMP WIND PRES WAVE SWELL AIR SEA DIR/SP/G HT/PER HT/PER/DIR (UTC) (F) (DEG/KT/KT) (MB) (FT/S) (FT/S/D) 5E St. Marys GA 1630 60 N/A 3/ 7 Frying Pan Buoy 1650 70 67 140/ 12/ 14 1029.9F 4/ 6 3/110/ 6 Buoy 41025 1650 68 72 140/ 17/ 21 1031.7F 6/ 9 3/ 70/ 9 Cape Lookout NC 1600 140/ 11/ 12 1030.9F Buoy 41002 1650 71 72 100/ 16/ 17 1030.7F 5/10 3/ 40/10 Buoy 41010 NOT AVBL St Augustine FL 1700 60 60 360/ 8/ 9 1028.4F $$

USA.gov is the U.S. government's official web portal to all federal, state and local government web resources and services.